Weather History for KEWR - January, 2014

Change the Weather History Date:

Saturday, January 11, 2014

  Actual Average Record
Temperature  
Mean Temperature 48 °F 31 °F  
Max Temperature 61 °F 39 °F 66 °F (1975)
Min Temperature 35 °F 24 °F -2 °F (1982)
Degree Days  
Heating Degree Days 17 34  
Month to date heating degree days 435 364  
Since 1 July heating degree days 2167 2114  
Cooling Degree Days 0 0  
Month to date cooling degree days 0 0  
Year to date cooling degree days 0 0  
Moisture  
Dew Point 51 °F    
Average Humidity 92    
Maximum Humidity 100    
Minimum Humidity 84    
Precipitation  
Precipitation 0.59 in 0.12 in 0.95 in (1991)
Month to date precipitation 1.80 1.30  
Year to date precipitation 1.80 1.30  
Snow  
Snow 0.00 in 0.20 in 5.70 in (1991)
Month to date snowfall 9.1 2.7  
Since 1 July snowfall 18.5 8.5  
Snow Depth 0.00 in    
Sea Level Pressure  
Sea Level Pressure 29.71 in    
Wind  
Wind Speed 9 mph (South)    
Max Wind Speed 25 mph    
Max Gust Speed 32 mph    
Visibility 4 miles    
Events Rain    
T = Trace of Precipitation, MM = Missing Value Source: NWS Daily Summary

Daily Weather History Graph

Daily Weather History Graph

Search for Another Location

Airport or City:

Trip Planner

Search our weather history database for the weather conditions in past years. The results will help you decide how hot, cold, wet, or windy it might be!

Date:

Astronomy

Jan. 11, 2014 Rise Set
Actual Time 7:19 AM EST 4:49 PM EST
Civil Twilight 6:49 AM EST 5:20 PM EST
Nautical Twilight 6:15 AM EST 5:54 PM EST
Astronomical Twilight 5:42 AM EST 6:26 PM EST
Moon 1:32 PM EST (1/11) 3:21 AM EST (1/11)
Length of Visible Light 10h 30m
Length of Day
9h 29m
Waxing Gibbous, 83% of the Moon is Illuminated
Jan 11
Waxing Gibbous
Jan 15
Full
Jan 24
Last Quarter
Jan 30
New
Feb 6
First Quarter

Hourly Weather History & Observations

Time (EST) Temp. Windchill Dew Point Humidity Pressure Visibility Wind Dir Wind Speed Gust Speed Precip Events Conditions
12:51 AM 35.1 °F 30.1 °F 34.0 °F 96% 30.18 in 1.0 mi NNE 5.8 mph - 0.02 in Rain Light Rain
1:51 AM 35.1 °F 32.2 °F 34.0 °F 96% 30.15 in 1.0 mi NNE 3.5 mph - 0.01 in Rain Light Rain
2:51 AM 35.1 °F 31.0 °F 35.1 °F 100% 30.11 in 1.0 mi North 4.6 mph - 0.03 in   Overcast
3:51 AM 35.1 °F 30.1 °F 35.1 °F 100% 30.07 in 1.0 mi NNE 5.8 mph - N/A   Overcast
4:51 AM 37.0 °F 31.6 °F 36.0 °F 96% 30.01 in 1.0 mi NNE 6.9 mph - 0.01 in Rain Light Rain
5:15 AM 37.4 °F 32.8 °F 37.4 °F 100% 30.00 in 1.0 mi North 5.8 mph - 0.01 in Rain Light Rain
5:44 AM 39.2 °F 37.0 °F 39.2 °F 100% 29.97 in 5.0 mi ENE 3.5 mph - 0.01 in   Overcast
5:51 AM 39.9 °F - 39.9 °F 100% 29.97 in 6.0 mi Calm Calm - 0.01 in   Overcast
5:59 AM 42.8 °F - 42.8 °F 100% 29.96 in 7.0 mi Calm Calm - N/A   Overcast
6:12 AM 46.4 °F - 44.6 °F 93% 29.96 in 7.0 mi Calm Calm - 0.00 in Rain Light Rain
6:51 AM 50.0 °F - 50.0 °F 100% 29.92 in 6.0 mi SE 3.5 mph - 0.00 in   Overcast
7:44 AM 53.6 °F - 53.6 °F 100% 29.90 in 2.0 mi South 8.1 mph - N/A   Overcast
7:51 AM 54.0 °F - 53.1 °F 97% 29.90 in 2.0 mi South 6.9 mph - N/A   Overcast
7:56 AM 55.4 °F - 53.6 °F 94% 29.89 in 1.5 mi South 6.9 mph - N/A   Overcast
8:08 AM 55.4 °F - 53.6 °F 94% 29.88 in 1.5 mi South 8.1 mph - N/A   Overcast
8:51 AM 55.9 °F - 55.9 °F 100% 29.87 in 1.0 mi South 8.1 mph - 0.00 in   Light Drizzle
8:59 AM 55.4 °F - 55.4 °F 100% 29.87 in 1.0 mi South 8.1 mph - 0.00 in   Light Drizzle
9:04 AM 57.2 °F - 55.4 °F 94% 29.86 in 3.0 mi South 8.1 mph - 0.00 in   Light Drizzle
9:51 AM 57.0 °F - 55.9 °F 96% 29.82 in 6.0 mi SSE 8.1 mph - 0.01 in Rain Light Rain
10:51 AM 60.1 °F - 57.9 °F 93% 29.76 in 10.0 mi South 12.7 mph 19.6 mph 0.03 in   Overcast
11:51 AM 59.0 °F - 57.0 °F 93% 29.68 in 9.0 mi SSE 10.4 mph 21.9 mph 0.00 in   Overcast
12:13 PM 57.2 °F - 55.4 °F 94% 29.65 in 2.0 mi South 12.7 mph 19.6 mph 0.01 in   Light Drizzle
12:51 PM 57.9 °F - 57.0 °F 97% 29.60 in 2.0 mi South 16.1 mph 20.7 mph 0.02 in Rain Light Rain
1:20 PM 57.2 °F - 57.2 °F 100% 29.59 in 1.0 mi South 9.2 mph - 0.00 in   Light Drizzle
1:51 PM 57.0 °F - 57.0 °F 100% 29.51 in 1.0 mi ESE 5.8 mph - 0.04 in Rain Light Rain
2:51 PM 57.0 °F - 57.0 °F 100% 29.49 in 1.0 mi South 9.2 mph - 0.01 in Rain Light Rain
3:51 PM 59.0 °F - 59.0 °F 100% 29.44 in 2.0 mi South 9.2 mph - 0.01 in Rain Light Rain
4:15 PM 60.8 °F - 59.0 °F 94% 29.44 in 2.0 mi South 11.5 mph - 0.01 in Rain Light Rain
4:25 PM 60.8 °F - 59.0 °F 94% 29.47 in 1.0 mi SSW 20.7 mph 25.3 mph 0.01 in Rain Heavy Rain
4:36 PM 60.8 °F - 57.2 °F 88% 29.46 in 2.0 mi SW 16.1 mph 32.2 mph 0.06 in Rain Light Rain
4:51 PM 60.1 °F - 55.9 °F 86% 29.44 in 7.0 mi SW 12.7 mph 21.9 mph 0.06 in Rain Light Rain
5:51 PM 57.0 °F - 55.0 °F 93% 29.49 in 3.0 mi SSW 13.8 mph - 0.16 in Rain Rain
6:29 PM 55.4 °F - 55.4 °F 100% 29.44 in 5.0 mi SSW 9.2 mph - 0.10 in Rain Rain
6:51 PM 55.9 °F - 55.0 °F 97% 29.44 in 8.0 mi SW 9.2 mph 23.0 mph 0.12 in Rain Light Rain
7:51 PM 55.0 °F - 54.0 °F 96% 29.39 in 10.0 mi SSE 6.9 mph - 0.02 in Rain Light Rain
8:51 PM 54.0 °F - 52.0 °F 93% 29.38 in 10.0 mi SSW 10.4 mph 17.3 mph 0.01 in   Overcast
9:22 PM 53.6 °F - 53.6 °F 100% 29.41 in 10.0 mi SW 16.1 mph 24.2 mph N/A   Overcast
9:51 PM 55.0 °F - 53.1 °F 93% 29.44 in 10.0 mi SW 11.5 mph 24.2 mph N/A   Overcast
10:34 PM 55.4 °F - 51.8 °F 88% 29.43 in 10.0 mi SW 13.8 mph 20.7 mph 0.01 in   Overcast
10:51 PM 55.0 °F - 52.0 °F 89% 29.42 in 10.0 mi SSW 11.5 mph 20.7 mph 0.02 in Rain Light Rain
11:43 PM 53.6 °F - 51.8 °F 94% 29.40 in 10.0 mi SW 12.7 mph - 0.01 in   Overcast
11:51 PM 54.0 °F - 51.1 °F 90% 29.41 in 10.0 mi SW 11.5 mph - 0.01 in   Overcast